When you browse on this site, cookies collect data to enhance your experience and personalize the content and advertising you see.
Visit our Privacy Policy to learn more. By continuing to use the site, you agree to this use of cookies and data.
  • In Sweden
  • List of Countries
  • For 7 days
  • Water Temperature
  • Weather Map
  • Weather Widgets
  • user-avatar
    Login

    Hourly Weather Cavaillon

    Today, 21 August, Wednesday

    Time Temperature Precipitation Wind Pressure Humidity
    00:00 +17°C° 0 mm 6 mps 752 mmHg 74%
    01:00 +17°C° 0 mm 6 mps 752 mmHg 73%
    02:00 +16°C° 0 mm 6 mps 751 mmHg 72%
    03:00 +16°C° 0 mm 6 mps 751 mmHg 71%
    04:00 +17°C° 0 mm 6 mps 751 mmHg 69%
    05:00 +17°C° 0 mm 5 mps 751 mmHg 67%
    06:00 +17°C° 0 mm 5 mps 751 mmHg 65%
    07:00 +20°C° 0 mm 5 mps 751 mmHg 59%
    08:00 +22°C° 0 mm 5 mps 751 mmHg 53%
    09:00 +25°C° 0 mm 5 mps 751 mmHg 47%
    10:00 +27°C° 0 mm 5 mps 751 mmHg 44%
    11:00 +29°C° 0 mm 5 mps 751 mmHg 40%
    12:00 +32°C° 0 mm 5 mps 751 mmHg 37%
    13:00 +32°C° 0 mm 5 mps 751 mmHg 37%
    14:00 +32°C° 0 mm 5 mps 751 mmHg 37%
    15:00 +32°C° 0 mm 5 mps 751 mmHg 37%
    16:00 +29°C° 0 mm 5 mps 751 mmHg 41%
    17:00 +28°C° 0 mm 4 mps 751 mmHg 45%
    18:00 +27°C° 0 mm 4 mps 751 mmHg 49%
    19:00 +26°C° 0 mm 4 mps 751 mmHg 52%
    20:00 +25°C° 0 mm 3 mps 751 mmHg 56%
    21:00 +24°C° 0 mm 3 mps 751 mmHg 60%
    22:00 +22°C° 0 mm 3 mps 751 mmHg 60%
    23:00 +22°C° 0 mm 3 mps 752 mmHg 60%

    Tomorrow, 22 August, Thursday

    Time Temperature Precipitation Wind Pressure Humidity
    00:00 +22°C° 0 mm 3 mps 752 mmHg 61%
    01:00 +21°C° 0 mm 3 mps 751 mmHg 62%
    02:00 +21°C° 0 mm 2 mps 751 mmHg 62%
    03:00 +20°C° 0 mm 2 mps 751 mmHg 63%
    04:00 +21°C° 0 mm 3 mps 751 mmHg 62%
    05:00 +21°C° 0 mm 3 mps 751 mmHg 62%
    06:00 +21°C° 0 mm 3 mps 751 mmHg 61%
    07:00 +24°C° 0 mm 3 mps 751 mmHg 56%
    08:00 +26°C° 0 mm 3 mps 752 mmHg 50%
    09:00 +28°C° 0 mm 3 mps 752 mmHg 45%
    10:00 +29°C° 0 mm 3 mps 752 mmHg 41%
    11:00 +31°C° 0 mm 3 mps 752 mmHg 37%
    12:00 +34°C° 0 mm 3 mps 752 mmHg 32%
    13:00 +34°C° 0.2 mm 3 mps 752 mmHg 33%
    14:00 +34°C° 0.2 mm 4 mps 751 mmHg 34%
    15:00 +33°C° 0.2 mm 4 mps 751 mmHg 35%
    16:00 +30°C° 1.4 mm 4 mps 751 mmHg 44%
    17:00 +27°C° 1.4 mm 4 mps 752 mmHg 53%
    18:00 +23°C° 1.4 mm 4 mps 752 mmHg 62%
    19:00 +22°C° 0 mm 3 mps 752 mmHg 64%
    20:00 +22°C° 0 mm 3 mps 752 mmHg 66%
    21:00 +21°C° 0 mm 2 mps 752 mmHg 68%
    22:00 +21°C° 0 mm 2 mps 752 mmHg 68%
    23:00 +21°C° 0 mm 2 mps 752 mmHg 69%

    Day after tomorrow, 23 August, Friday

    Time Temperature Precipitation Wind Pressure Humidity
    00:00 +20°C° 0 mm 2 mps 752 mmHg 70%
    01:00 +20°C° 0 mm 2 mps 752 mmHg 70%
    02:00 +20°C° 0 mm 2 mps 752 mmHg 70%
    03:00 +20°C° 0 mm 2 mps 752 mmHg 70%
    04:00 +20°C° 0 mm 2 mps 752 mmHg 69%
    05:00 +21°C° 0 mm 2 mps 752 mmHg 67%
    06:00 +21°C° 0 mm 2 mps 752 mmHg 65%
    07:00 +25°C° 0 mm 2 mps 752 mmHg 57%
    08:00 +27°C° 0 mm 2 mps 752 mmHg 48%
    09:00 +30°C° 0 mm 2 mps 752 mmHg 40%
    10:00 +31°C° 0 mm 2 mps 752 mmHg 37%
    11:00 +34°C° 0 mm 2 mps 752 mmHg 34%
    12:00 +35°C° 0 mm 3 mps 751 mmHg 31%
    13:00 +35°C° 0 mm 3 mps 751 mmHg 32%
    14:00 +35°C° 0 mm 4 mps 751 mmHg 32%
    15:00 +35°C° 0 mm 4 mps 751 mmHg 33%
    16:00 +33°C° 0 mm 4 mps 751 mmHg 38%
    17:00 +31°C° 0 mm 3 mps 751 mmHg 42%
    18:00 +29°C° 0 mm 3 mps 751 mmHg 46%
    19:00 +27°C° 0 mm 2 mps 751 mmHg 52%
    20:00 +26°C° 0 mm 1 mps 751 mmHg 57%
    21:00 +22°C° 0 mm 0 mps 751 mmHg 62%
    22:00 +22°C° 0 mm 0 mps 751 mmHg 63%
    23:00 +21°C° 0 mm 0 mps 751 mmHg 65%

    24 August, Saturday

    Time Temperature Precipitation Wind Pressure Humidity
    00:00 +21°C° 0 mm 0 mps 751 mmHg 66%
    01:00 +23°C° 0 mm 1 mps 751 mmHg 67%
    02:00 +22°C° 0 mm 1 mps 751 mmHg 68%
    03:00 +22°C° 0 mm 1 mps 750 mmHg 70%
    04:00 +22°C° 0 mm 1 mps 750 mmHg 68%
    05:00 +23°C° 0 mm 1 mps 750 mmHg 67%
    06:00 +23°C° 0 mm 1 mps 750 mmHg 65%
    07:00 +26°C° 0 mm 1 mps 751 mmHg 57%
    08:00 +28°C° 0 mm 1 mps 751 mmHg 48%
    09:00 +31°C° 0 mm 1 mps 751 mmHg 39%
    10:00 +32°C° 0 mm 1 mps 751 mmHg 35%
    11:00 +34°C° 0 mm 2 mps 751 mmHg 32%
    12:00 +36°C° 0 mm 3 mps 750 mmHg 28%
    13:00 +35°C° 0 mm 4 mps 750 mmHg 29%
    14:00 +35°C° 0 mm 4 mps 750 mmHg 29%
    15:00 +35°C° 0 mm 5 mps 750 mmHg 30%
    16:00 +33°C° 0 mm 5 mps 750 mmHg 36%
    17:00 +30°C° 0 mm 4 mps 749 mmHg 42%
    18:00 +28°C° 0 mm 3 mps 749 mmHg 48%
    19:00 +27°C° 0 mm 3 mps 750 mmHg 55%
    20:00 +25°C° 0 mm 2 mps 750 mmHg 61%
    21:00 +23°C° 0 mm 1 mps 750 mmHg 68%
    22:00 +23°C° 0 mm 1 mps 750 mmHg 69%
    23:00 +23°C° 0 mm 1 mps 750 mmHg 70%

    25 August, Sunday

    Time Temperature Precipitation Wind Pressure Humidity
    00:00 +23°C° 0 mm 1 mps 750 mmHg 72%
    01:00 +22°C° 0 mm 1 mps 750 mmHg 72%
    02:00 +22°C° 0 mm 1 mps 750 mmHg 72%
    03:00 +22°C° 0 mm 1 mps 749 mmHg 72%
    04:00 +22°C° 0 mm 1 mps 749 mmHg 69%
    05:00 +23°C° 0 mm 1 mps 749 mmHg 67%
    06:00 +23°C° 0 mm 1 mps 749 mmHg 65%
    07:00 +26°C° 0 mm 1 mps 750 mmHg 56%
    08:00 +28°C° 0 mm 1 mps 750 mmHg 48%
    09:00 +31°C° 0 mm 1 mps 750 mmHg 39%
    10:00 +32°C° 0 mm 2 mps 750 mmHg 35%
    11:00 +34°C° 0 mm 2 mps 750 mmHg 31%
    12:00 +36°C° 0 mm 3 mps 750 mmHg 27%
    13:00 +35°C° 0 mm 4 mps 749 mmHg 28%
    14:00 +35°C° 0 mm 4 mps 749 mmHg 29%
    15:00 +35°C° 0 mm 5 mps 749 mmHg 30%
    16:00 +33°C° 0 mm 4 mps 749 mmHg 37%
    17:00 +30°C° 0 mm 4 mps 749 mmHg 43%
    18:00 +28°C° 0 mm 3 mps 749 mmHg 50%
    19:00 +26°C° 0 mm 2 mps 749 mmHg 57%
    20:00 +25°C° 0 mm 1 mps 749 mmHg 65%
    21:00 +23°C° 0 mm 1 mps 750 mmHg 73%
    22:00 +23°C° 0 mm 1 mps 750 mmHg 73%
    23:00 +23°C° 0 mm 1 mps 750 mmHg 74%

    26 August, Monday

    Time Temperature Precipitation Wind Pressure Humidity
    00:00 +22°C° 0 mm 1 mps 750 mmHg 74%
    01:00 +22°C° 0 mm 1 mps 750 mmHg 74%
    02:00 +20°C° 0 mm 0 mps 749 mmHg 73%
    03:00 +19°C° 0 mm 0 mps 749 mmHg 73%
    04:00 +20°C° 0 mm 0 mps 750 mmHg 71%
    05:00 +20°C° 0 mm 0 mps 750 mmHg 69%
    06:00 +21°C° 0 mm 0 mps 750 mmHg 67%
    07:00 +25°C° 0 mm 1 mps 750 mmHg 57%
    08:00 +28°C° 0 mm 1 mps 751 mmHg 48%
    09:00 +30°C° 0 mm 1 mps 751 mmHg 39%
    10:00 +32°C° 0 mm 2 mps 751 mmHg 35%
    11:00 +35°C° 0 mm 2 mps 751 mmHg 31%
    12:00 +36°C° 0 mm 3 mps 750 mmHg 27%
    13:00 +37°C° 0 mm 3 mps 750 mmHg 26%
    14:00 +37°C° 0 mm 4 mps 750 mmHg 25%
    15:00 +37°C° 0 mm 4 mps 750 mmHg 24%
    16:00 +35°C° 0 mm 4 mps 750 mmHg 29%
    17:00 +33°C° 0 mm 3 mps 750 mmHg 34%
    18:00 +31°C° 0 mm 3 mps 750 mmHg 40%
    19:00 +29°C° 0 mm 2 mps 750 mmHg 44%
    20:00 +28°C° 0 mm 2 mps 751 mmHg 49%
    21:00 +26°C° 0 mm 2 mps 751 mmHg 53%
    22:00 +26°C° 0 mm 2 mps 751 mmHg 54%
    23:00 +26°C° 0 mm 3 mps 752 mmHg 55%
    Show more